Location: Nairn
(57.5833°N, 3.8667°W)
Time: 02:00:05
(UTC+00:00)

Transit 2A - Pass Details

Date: 03 December 2020
Orbit: 598 x 960 km, 66.7° (Epoch: 20 January)

Event Time Altitude Azimuth Distance (km) Brightness Sun altitude
Rises 18:16:50 0° 237° (WSW) 3,600 10.7 -20.1°
Reaches altitude 10° 18:19:28 10° 240° (WSW) 2,629 9.8 -20.5°
Maximum altitude 18:25:35 67° 323° (NW) 950 6.5 -21.3°
Enters shadow 18:28:14 33° 36° (NE) 1,409 7.0 -21.6°
